Location: Berville
(49.1893°N, 2.0748°E)
Time: 18:12:37
(UTC+00:00)

ATLAS CENTAUR R/B - Pass Details

Date: 08 February 2023
Orbit: 449 x 650 km, 64.7° (Epoch: 28 March)

Event Time Altitude Azimuth Distance (km) Brightness Sun altitude
Rises 18:43:03 0° 293° (WNW) 2,934 6.2 -17.3°
Reaches altitude 10° 18:46:54 10° 324° (NW) 1,982 4.6 -17.9°
Maximum altitude 18:48:36 12° 347° (NNW) 1,834 4.1 -18.2°
Drops below altitude 10° 18:50:18 10° 10° (N) 1,936 4.0 -18.4°
Enters shadow 18:51:03 - 19° (NNE) 2,056 4.0 -18.6°
